Back to catalog

STARLINK-4353

AliveCommunicationsSSO
NORAD 53214·PAYLOAD·🇺🇸 United States

Launched Jul 22, 2022 from Vandenberg Space Force Base

Loading…

Next Passes (next 24 hours)

TLE

FreshSource: CelesTrak SupGP

Epoch: Sep 14, 2026, 14:12 UTC

1 53214C 22084AB  26257.59215278  .00064595  00000+0  20049-2 0  2574
2 53214  97.2837 312.4199 0001650 112.2830 163.6611 15.33409799    16

Track STARLINK-4353 in real time with AllMySat

Download on the App Store